Russellville, AR

3:57 PM CDT on September 29, 2016 (GMT -0500)
Russellville Regional

Weather History for KRUE - June, 2013

Change the Weather History Date:

Thursday, June 27, 2013

  Actual Average (KHOT) Record (KHOT)
Temperature  
Mean Temperature 86 °F -  
Max Temperature 100 °F 90 °F 105 °F (1954)
Min Temperature 73 °F 68 °F 53 °F (1968)
Cooling Degree Days 22    
Growing Degree Days 36 (Base 50)    
Moisture  
Dew Point 72 °F    
Average Humidity 65    
Maximum Humidity 93    
Minimum Humidity 34    
Precipitation  
Precipitation 0.00 in - - ()
Sea Level Pressure  
Sea Level Pressure 29.90 in    
Wind  
Wind Speed 2 mph (WNW)    
Max Wind Speed 10 mph    
Max Gust Speed 17 mph    
Visibility 10 miles    
Events      
Averages and records for this station are not official NWS values.
T = Trace of Precipitation, MM = Missing Value Source: NWS Daily Summary

Daily Weather History Graph

Daily Weather History Graph

Search for Another Location

Airport or City:

Trip Planner

Search our weather history database for the weather conditions in past years. The results will help you decide how hot, cold, wet, or windy it might be!

Date:

Astronomy

Jun. 27, 2013 Rise Set
Actual Time 5:59 AM CDT 8:31 PM CDT
Civil Twilight 5:30 AM CDT 9:00 PM CDT
Nautical Twilight 4:53 AM CDT 9:37 PM CDT
Astronomical Twilight 4:12 AM CDT 10:18 PM CDT
Moon 11:41 PM CDT (6/27) 10:50 AM CDT (6/27)
Length of Visible Light 15h 30m
Length of Day
14h 31m
Waning Gibbous, 76% of the Moon is Illuminated
Jun 27
Waning Gibbous
Jun 29
Last Quarter
Jul 8
New
Jul 15
First Quarter
Jul 22
Full

Hourly Weather History & Observations

Time (CDT) Temp. Heat Index Dew Point Humidity Pressure Visibility Wind Dir Wind Speed Gust Speed Precip Events Conditions
12:53 AM 79.0 °F - 73.0 °F 82% 29.90 in 10.0 mi Calm Calm - N/A   Partly Cloudy
1:53 AM 78.1 °F - 73.0 °F 84% 29.90 in 10.0 mi Calm Calm - N/A   Clear
2:53 AM 77.0 °F - 73.0 °F 88% 29.90 in 10.0 mi Calm Calm - N/A   Clear
3:53 AM 75.9 °F - 72.0 °F 87% 29.91 in 9.0 mi Calm Calm - N/A   Clear
4:53 AM 75.0 °F - 72.0 °F 90% 29.92 in 8.0 mi Calm Calm - N/A   Clear
5:53 AM 73.9 °F - 72.0 °F 93% 29.94 in 7.0 mi Calm Calm - N/A   Clear
6:53 AM 73.9 °F - 72.0 °F 93% 29.93 in 5.0 mi Calm Calm - N/A   Clear
7:53 AM 82.0 °F 87.4 °F 73.0 °F 74% 29.93 in 10.0 mi Calm Calm - N/A   Clear
8:53 AM 84.9 °F 91.4 °F 73.0 °F 67% 29.94 in 10.0 mi Calm Calm - N/A   Clear
9:53 AM 90.0 °F 97.9 °F 73.0 °F 57% 29.93 in 10.0 mi Variable 3.5 mph - N/A   Clear
10:53 AM 93.9 °F 100.8 °F 71.1 °F 47% 29.94 in 10.0 mi WNW 9.2 mph - N/A   Clear
11:53 AM 95.0 °F 103.2 °F 72.0 °F 47% 29.93 in 10.0 mi Variable 4.6 mph - N/A   Clear
12:53 PM 98.1 °F 106.5 °F 71.1 °F 42% 29.93 in 10.0 mi NW 10.4 mph 17.3 mph N/A   Clear
1:53 PM 99.0 °F 107.0 °F 71.1 °F 40% 29.91 in 10.0 mi West 10.4 mph - N/A   Clear
2:53 PM 99.0 °F 106.2 °F 70.0 °F 39% 29.90 in 10.0 mi West 10.4 mph - N/A   Clear
3:53 PM 100.9 °F 106.7 °F 68.0 °F 34% 29.88 in 10.0 mi West 6.9 mph - N/A   Clear
4:53 PM 100.9 °F 108.9 °F 70.0 °F 37% 29.87 in 10.0 mi Variable 6.9 mph - N/A   Clear
5:53 PM 100.9 °F 109.7 °F 71.1 °F 38% 29.85 in 10.0 mi WNW 8.1 mph - N/A   Clear
6:53 PM 99.0 °F 106.2 °F 70.0 °F 39% 29.83 in 10.0 mi Variable 3.5 mph - N/A   Clear
7:53 PM 89.1 °F 99.1 °F 75.0 °F 63% 29.84 in 10.0 mi Calm Calm - N/A   Clear
8:53 PM 84.9 °F 95.3 °F 77.0 °F 77% 29.84 in 10.0 mi Calm Calm - N/A   Clear
9:53 PM 82.9 °F 90.8 °F 75.9 °F 79% 29.84 in 10.0 mi Calm Calm - N/A   Clear
10:53 PM 81.0 °F 86.7 °F 75.0 °F 82% 29.86 in 10.0 mi Calm Calm - N/A   Clear
11:53 PM 82.0 °F 88.6 °F 75.0 °F 79% 29.88 in 10.0 mi Calm Calm - N/A   Partly Cloudy